Mosby, MO

12:00 AM CST on December 06, 2019 (GMT -0600)
Clay County Regional

Weather History for KGPH - November, 2019

Change the Weather History Date:

Saturday, November 16, 2019

  Actual Average (KMKC) Record (KMKC)
Temperature  
Mean Temperature 42 °F -  
Max Temperature 55 °F 53 °F 75 °F (2016)
Min Temperature 28 °F 36 °F 18 °F (2014)
Degree Days  
Heating Degree Days 24    
Moisture  
Dew Point 25 °F    
Average Humidity 55    
Maximum Humidity 93    
Minimum Humidity 31    
Precipitation  
Precipitation 0.00 in - - ()
Sea Level Pressure  
Sea Level Pressure 30.18 in    
Wind  
Wind Speed 1 mph ()    
Max Wind Speed 12 mph    
Max Gust Speed 16 mph    
Visibility 10.0 miles    
Events      
Averages and records for this station are not official NWS values.
T = Trace of Precipitation, MM = Missing Value Source: Averaged Metar Reports

Daily Weather History Graph

Daily Weather History Graph

Search for Another Location

Airport or City:

Astronomy

Nov. 16, 2019 Rise Set
Actual Time 7:01 AM CST 5:01 PM CST
Civil Twilight 6:33 AM CST 5:30 PM CST
Nautical Twilight 6:00 AM CST 6:02 PM CST
Astronomical Twilight 5:28 AM CST 6:34 PM CST
Moon 8:36 PM CST (11/16) 10:55 AM CST (11/16)
Length of Visible Light 10h 57m
Length of Day
10h 00m
Waning Gibbous, 82% of the Moon is Illuminated
Nov 16
Waning Gibbous
Nov 19
Last Quarter
Nov 26
New
Dec 4
First Quarter
Dec 11
Full

Hourly Weather History & Observations

Time (CST) Temp. Windchill Dew Point Humidity Pressure Visibility Wind Dir Wind Speed Gust Speed Precip Events Conditions
12:15 AM 30.2 °F - 23.0 °F 75% 30.31 in 10.0 mi Calm Calm - N/A   Clear
12:35 AM 30.2 °F - 24.8 °F 80% 30.31 in 10.0 mi Calm Calm - N/A   Clear
12:55 AM 28.4 °F - 23.0 °F 80% 30.31 in 10.0 mi Calm Calm - N/A   Clear
1:15 AM 28.4 °F - 26.6 °F 93% 30.30 in 10.0 mi Calm Calm - N/A   Clear
1:55 AM 28.4 °F - 24.8 °F 86% 30.29 in 10.0 mi Calm Calm - N/A   Clear
2:15 AM 28.4 °F - 24.8 °F 86% 30.30 in 10.0 mi Calm Calm - N/A   Clear
2:35 AM 28.4 °F - 24.8 °F 86% 30.29 in 10.0 mi Calm Calm - N/A   Clear
2:55 AM 28.4 °F - 24.8 °F 86% 30.29 in 10.0 mi Calm Calm - N/A   Clear
3:15 AM 30.2 °F - 23.0 °F 75% 30.28 in 10.0 mi Calm Calm - N/A   Clear
3:35 AM 32.0 °F - 21.2 °F 64% 30.28 in 10.0 mi Calm Calm - N/A   Clear
3:55 AM 32.0 °F - 21.2 °F 64% 30.28 in 10.0 mi Calm Calm - N/A   Clear
4:15 AM 33.8 °F - 19.4 °F 56% 30.27 in 10.0 mi Calm Calm - N/A   Clear
4:35 AM 32.0 °F - 21.2 °F 64% 30.27 in 10.0 mi Calm Calm - N/A   Clear
4:55 AM 32.0 °F - 21.2 °F 64% 30.27 in 10.0 mi Calm Calm - N/A   Clear
5:15 AM 32.0 °F - 21.2 °F 64% 30.27 in 10.0 mi Calm Calm - N/A   Clear
5:55 AM 32.0 °F - 21.2 °F 64% 30.27 in 10.0 mi Calm Calm - N/A   Clear
6:15 AM 32.0 °F - 21.2 °F 64% 30.27 in 10.0 mi Calm Calm - N/A   Clear
6:35 AM 32.0 °F - 21.2 °F 64% 30.27 in 10.0 mi Calm Calm - N/A   Clear
6:55 AM 32.0 °F - 21.2 °F 64% 30.27 in 10.0 mi Calm Calm - N/A   Clear
7:15 AM 32.0 °F - 21.2 °F 64% 30.27 in 10.0 mi Calm Calm - N/A   Clear
7:35 AM 32.0 °F - 21.2 °F 64% 30.27 in 10.0 mi Calm Calm - N/A   Clear
7:55 AM 32.0 °F - 21.2 °F 64% 30.27 in 10.0 mi Calm Calm - N/A   Clear
8:15 AM 32.0 °F - 21.2 °F 64% 30.27 in 10.0 mi Calm Calm - N/A   Clear
8:35 AM 33.8 °F - 21.2 °F 60% 30.27 in 10.0 mi Calm Calm - N/A   Clear
8:55 AM 33.8 °F - 23.0 °F 65% 30.27 in 10.0 mi Calm Calm - N/A   Clear
9:15 AM 35.6 °F - 23.0 °F 60% 30.27 in 10.0 mi Calm Calm - N/A   Clear
9:35 AM 37.4 °F - 23.0 °F 56% 30.27 in 10.0 mi Calm Calm - N/A   Clear
9:55 AM 37.4 °F - 23.0 °F 56% 30.26 in 10.0 mi Calm Calm - N/A   Clear
10:15 AM 39.2 °F - 23.0 °F 52% 30.26 in 10.0 mi Calm Calm - N/A   Clear
10:35 AM 41.0 °F - 24.8 °F 53% 30.25 in 10.0 mi Calm Calm - N/A   Clear
10:55 AM 42.8 °F - 24.8 °F 49% 30.24 in 10.0 mi Calm Calm - N/A   Clear
11:55 AM 48.2 °F - 23.0 °F 37% 30.21 in 10.0 mi Calm Calm - N/A   Clear
12:15 PM 48.2 °F - 24.8 °F 40% 30.20 in 10.0 mi Calm Calm - N/A   Clear
12:35 PM 50.0 °F - 24.8 °F 37% 30.18 in 10.0 mi SE 9.2 mph - N/A   Clear
12:55 PM 51.8 °F - 24.8 °F 35% 30.17 in 10.0 mi Calm Calm - N/A   Clear
1:15 PM 53.6 °F - 24.8 °F 33% 30.15 in 10.0 mi Calm Calm - N/A   Clear
1:55 PM 55.4 °F - 26.6 °F 33% 30.12 in 10.0 mi SE 11.5 mph - N/A   Clear
2:15 PM 55.4 °F - 26.6 °F 33% 30.11 in 10.0 mi SE 4.6 mph - N/A   Clear
2:35 PM 55.4 °F - 24.8 °F 31% 30.10 in 10.0 mi South 10.4 mph 16.1 mph N/A   Clear
2:55 PM 55.4 °F - 26.6 °F 33% 30.10 in 10.0 mi SE 10.4 mph - N/A   Clear
3:15 PM 55.4 °F - 26.6 °F 33% 30.08 in 10.0 mi SE 11.5 mph - N/A   Clear
3:55 PM 55.4 °F - 26.6 °F 33% 30.08 in 10.0 mi SSE 6.9 mph - N/A   Clear
4:15 PM 55.4 °F - 26.6 °F 33% 30.08 in 10.0 mi SSE 6.9 mph - N/A   Clear
4:55 PM 53.6 °F - 26.6 °F 35% 30.07 in 10.0 mi SE 5.8 mph - N/A   Clear
5:15 PM 53.6 °F - 28.4 °F 38% 30.06 in 10.0 mi Calm Calm - N/A   Clear
5:35 PM 51.8 °F - 28.4 °F 41% 30.07 in 10.0 mi SSE 5.8 mph - N/A   Clear
5:55 PM 51.8 °F - 28.4 °F 41% 30.06 in 10.0 mi SE 4.6 mph - N/A   Clear
6:35 PM 50.0 °F - 26.6 °F 40% 30.05 in 10.0 mi SE 4.6 mph - N/A   Clear
6:55 PM 50.0 °F - 28.4 °F 43% 30.05 in 10.0 mi SSE 4.6 mph - N/A   Clear
7:15 PM 48.2 °F - 26.6 °F 43% 30.05 in 10.0 mi SE 4.6 mph - N/A   Clear
7:35 PM 48.2 °F - 26.6 °F 43% 30.05 in 10.0 mi Calm Calm - N/A   Clear
8:15 PM 48.2 °F - 26.6 °F 43% 30.05 in 10.0 mi SE 4.6 mph - N/A   Clear
8:55 PM 46.4 °F 44.3 °F 26.6 °F 46% 30.05 in 10.0 mi SE 4.6 mph - N/A   Clear
9:15 PM 46.4 °F 45.2 °F 26.6 °F 46% 30.06 in 10.0 mi SE 3.5 mph - N/A   Clear
9:35 PM 46.4 °F - 26.6 °F 46% 30.07 in 10.0 mi Calm Calm - N/A   Clear
9:55 PM 44.6 °F - 26.6 °F 49% 30.07 in 10.0 mi Calm Calm - N/A   Clear
10:15 PM 44.6 °F - 28.4 °F 53% 30.07 in 10.0 mi Calm Calm - N/A   Clear
10:35 PM 42.8 °F - 28.4 °F 57% 30.07 in 10.0 mi Calm Calm - N/A   Clear
10:55 PM 42.8 °F - 28.4 °F 57% 30.07 in 10.0 mi Calm Calm - N/A   Clear
11:15 PM 42.8 °F - 28.4 °F 57% 30.07 in 10.0 mi Calm Calm - N/A   Clear
11:35 PM 41.0 °F - 28.4 °F 61% 30.07 in 10.0 mi Calm Calm - N/A   Clear
11:55 PM 42.8 °F 41.1 °F 28.4 °F 57% 30.06 in 10.0 mi SE 3.5 mph - N/A   Clear